Location: Alta
(39.2070°N, 120.8111°W)
Time: 02:45:11
(UTC+00:00)

ACS3 Solar Sail - Visible Passes

Search period start: 09 March 2026 00:00
Search period end: 19 March 2026 00:00
Orbit: 887 x 973 km, 97.2° (Epoch: 8 March)

Date Brightness Start Highest point End Pass type
(mag) Time Alt. Az. Time Alt. Az. Time Alt. Az.
13 Mar 4.5 09:49:43 10° N 09:49:44 10° N 09:49:44 10° N visible
14 Mar 4.3 10:00:52 10° N 10:01:07 11° N 10:01:07 11° N visible
15 Mar 4.2 10:12:01 10° N 10:12:26 12° N 10:12:26 12° N visible
16 Mar 4.2 10:23:09 10° N 10:23:40 13° N 10:23:40 13° N visible
17 Mar 4.1 10:34:14 10° N 10:34:50 13° N 10:34:50 13° N visible
18 Mar 4.0 10:45:20 10° NNW 10:45:56 13° NNW 10:45:56 13° NNW visible
